Flag for Norway Weather past 2 weeks in Stavanger, Norway

Now
81 °F

Sunny.


Feels Like: 81 °F
Forecast: 64 / 73 °F
Wind: 9 mph from West

Location: Stavanger / Sola

Current Time: Jul 22, 2014 at 4:10:09 PM

Latest Report: Jul 22, 2014 at 3:50 PM


Visibility: 10 mi

Pressure: 30.27 "Hg

Humidity: 48%

Dew point: 59 °F

Location of StavangerLocation

Historic Weather in Stavanger — Graph

°F

Stavanger temperature yesterday

Maximum temperature yesterday: 82 °F (at 12:50 PM)
Minimum temperature yesterday: 68 °F (at 12:50 AM)
Average temperature yesterday: 74 °F

Past Weeks' High & Low Weather Summary

 TemperatureHumidityPressure
High84 °F (Jul 10, 1:20 PM)100% (Jul 10, 3:50 AM)30.27 "Hg (Jul 10, 3:50 AM)
Low50 °F (Jul 8, 3:50 AM)37% (Jul 10, 11:50 AM)29.65 "Hg (Jul 14, 12:50 AM)
Average67 °F72%30.00 "Hg
* Reported Jul 7 2:20 PM — Jul 22 2:50 PM, Stavanger, Weather by CustomWeather, © 2014

Note: Actual official high and low records may vary slightly from our data, if they occured in-between our weather recording intervals... More about our weather records

Advertising

Stavanger weather history for previous 24 hours

 ConditionsComfort  
Time TempWeatherWind HumidityBarometerVisibility
2:50 PM
Jul 22
81 °FSunny.8 mph45%30.27 "Hg10 mi
2:20 PM79 °FPassing clouds.7 mph51%30.27 "HgN/A
1:50 PM77 °FPassing clouds.7 mph57%30.27 "HgN/A
1:20 PM77 °FPassing clouds.8 mph57%30.27 "HgN/A
12:50 PM77 °FPassing clouds.10 mph57%30.27 "HgN/A
12:20 PM77 °FPassing clouds.8 mph57%30.27 "HgN/A
11:50 AM77 °FPassing clouds.8 mph57%30.24 "HgN/A
11:20 AM77 °FSunny.8 mph57%30.24 "Hg10 mi
10:50 AM77 °FSunny.2 mph54%30.24 "Hg10 mi
10:20 AM77 °FPassing clouds.3 mph51%30.24 "HgN/A
9:50 AM77 °FSunny.6 mph54%30.24 "Hg10 mi
9:20 AM75 °FSunny.5 mph61%30.24 "Hg10 mi
8:50 AM72 °FSunny.3 mph65%30.21 "Hg10 mi
8:20 AM70 °FSunny.3 mph73%30.21 "Hg10 mi
7:50 AM68 °FSunny.3 mph78%30.21 "Hg10 mi
7:20 AM66 °FSunny.5 mph78%30.21 "Hg10 mi
6:50 AM64 °FSunny.2 mph83%30.21 "Hg10 mi
6:20 AM63 °FSunny.1 mph88%30.21 "Hg10 mi
5:50 AM64 °FClear.1 mph83%30.18 "Hg10 mi
4:50 AM64 °FClear.1 mph78%30.18 "Hg10 mi
3:50 AM64 °FClear.1 mph78%30.18 "Hg10 mi
2:50 AM66 °FClear.1 mph78%30.18 "Hg10 mi
2:20 AM66 °FClear.1 mph73%30.18 "Hg10 mi
1:50 AM66 °FClear.1 mph73%30.18 "Hg10 mi
1:20 AM68 °FClear.1 mph69%30.18 "Hg10 mi
12:50 AM68 °FClear.1 mph69%30.18 "Hg10 mi
12:20 AM66 °FClear.6 mph73%30.18 "Hg10 mi
11:50 PM
Jul 21
68 °FClear.2 mph69%30.18 "Hg10 mi
11:20 PM68 °FSunny.3 mph69%30.18 "Hg10 mi
10:50 PM68 °FSunny.5 mph73%30.18 "Hg10 mi
10:20 PM70 °FSunny.5 mph69%30.18 "Hg10 mi
9:50 PM70 °FSunny.5 mph69%30.15 "Hg10 mi
9:20 PM68 °FSunny.5 mph78%30.15 "Hg10 mi
8:50 PM70 °FSunny.5 mph73%30.15 "Hg10 mi
8:20 PM72 °FSunny.7 mph69%30.15 "Hg10 mi
7:50 PM72 °FPassing clouds.9 mph69%30.15 "HgN/A
7:20 PM75 °FSunny.6 mph61%30.12 "Hg10 mi
6:50 PM75 °FPassing clouds.7 mph57%30.12 "HgN/A
6:20 PM72 °FSunny.6 mph69%30.12 "Hg10 mi
5:50 PM73 °FPassing clouds.6 mph65%30.12 "HgN/A
5:20 PM73 °FSunny.9 mph65%30.12 "Hg10 mi
4:50 PM72 °FSunny.7 mph69%30.12 "Hg10 mi
4:20 PM73 °FSunny.8 mph61%30.12 "Hg10 mi
Weather by CustomWeather, © 2014

See weather overviewHow to use our weather pages